APG427 RPLL-RPVP

Flight info

Callsign APG427
Flight time 1h 0m
Altitude 36000
Route BUCAL4V BUCAL M646 NOMYO DCT
Aircraft A320/M-SDE3FGHIRWY/LB1

Departure

Time 2026-04-25 02:21
Airport Ninoy Aquino International Airport (RPLL)

Arrival

Time 2026-04-25 03:22
Airport Puerto Princesa International Airport / PAF Antonio Bautista Air Base (RPVP)
Time Latitude Longitude Altitude Speed Heading
2026-04-25 02:02 14.50814 121.01241 48 ft 0 kts 332°
2026-04-25 02:11 14.50811 121.01243 47 ft 1 kts 332°
2026-04-25 02:11 14.50805 121.01247 48 ft 1 kts 332°
2026-04-25 02:11 14.50798 121.01250 48 ft 1 kts 332°
2026-04-25 02:12 14.50791 121.01254 47 ft 1 kts 332°
2026-04-25 02:12 14.50781 121.01260 46 ft 2 kts 332°
2026-04-25 02:12 14.50768 121.01267 47 ft 2 kts 332°
2026-04-25 02:12 14.50756 121.01273 49 ft 2 kts 343°
2026-04-25 02:13 14.50742 121.01276 48 ft 2 kts 10°
2026-04-25 02:13 14.50728 121.01271 51 ft 2 kts 43°
2026-04-25 02:13 14.50721 121.01262 48 ft 1 kts 63°
2026-04-25 02:13 14.50719 121.01258 47 ft 0 kts 60°
2026-04-25 02:15 14.50732 121.01283 49 ft 7 kts 61°
2026-04-25 02:15 14.50765 121.01344 48 ft 12 kts 57°
2026-04-25 02:16 14.50819 121.01436 46 ft 18 kts 58°
2026-04-25 02:16 14.50890 121.01562 39 ft 23 kts 57°
2026-04-25 02:16 14.50974 121.01671 30 ft 17 kts
2026-04-25 02:16 14.51077 121.01594 29 ft 20 kts 314°
2026-04-25 02:17 14.51176 121.01491 30 ft 16 kts 314°
2026-04-25 02:17 14.51262 121.01425 31 ft 16 kts
2026-04-25 02:17 14.51364 121.01436 32 ft 16 kts 321°
2026-04-25 02:17 14.51446 121.01351 34 ft 18 kts 315°
2026-04-25 02:18 14.51536 121.01260 37 ft 19 kts 316°
2026-04-25 02:18 14.51632 121.01162 39 ft 20 kts 313°
2026-04-25 02:18 14.51735 121.01055 42 ft 22 kts 315°
2026-04-25 02:18 14.51845 121.00943 43 ft 23 kts 316°
2026-04-25 02:19 14.51962 121.00819 43 ft 25 kts 315°
2026-04-25 02:19 14.52087 121.00689 46 ft 26 kts 315°
2026-04-25 02:19 14.52219 121.00553 49 ft 27 kts 314°
2026-04-25 02:19 14.52322 121.00447 50 ft 10 kts 315°
2026-04-25 02:20 14.52365 121.00387 52 ft 7 kts 293°
2026-04-25 02:20 14.52378 121.00388 50 ft 1 kts 60°
2026-04-25 02:20 14.52372 121.00394 48 ft 2 kts 128°
2026-04-25 02:20 14.52325 121.00445 51 ft 23 kts 133°
2026-04-25 02:21 14.51997 121.00785 45 ft 110 kts 135°
2026-04-25 02:21 14.51289 121.01517 204 ft 162 kts 134°
2026-04-25 02:21 14.50566 121.02310 1258 ft 151 kts 131°
2026-04-25 02:21 14.49817 121.03136 2133 ft 165 kts 133°
2026-04-25 02:22 14.48971 121.04011 2748 ft 182 kts 134°
2026-04-25 02:22 14.48018 121.04971 3244 ft 201 kts 134°
2026-04-25 02:22 14.46987 121.06014 3688 ft 221 kts 134°
2026-04-25 02:22 14.45844 121.07175 4340 ft 234 kts 134°
2026-04-25 02:23 14.44513 121.08131 5231 ft 238 kts 159°
2026-04-25 02:23 14.42859 121.08302 6088 ft 245 kts 189°
2026-04-25 02:23 14.41296 121.07578 6888 ft 252 kts 219°
2026-04-25 02:23 14.40090 121.06235 7597 ft 261 kts 231°
2026-04-25 02:24 14.38930 121.04703 8034 ft 282 kts 232°
2026-04-25 02:24 14.37707 121.03067 8772 ft 290 kts 232°
2026-04-25 02:24 14.36452 121.01430 9745 ft 292 kts 232°
2026-04-25 02:24 14.35121 120.99823 10430 ft 303 kts 227°
2026-04-25 02:25 14.33610 120.98189 10737 ft 326 kts 226°
2026-04-25 02:25 14.31986 120.96456 11110 ft 343 kts 226°
2026-04-25 02:25 14.30664 120.95046 11721 ft 346 kts 226°
2026-04-25 02:25 14.28986 120.93253 12499 ft 350 kts 226°
2026-04-25 02:26 14.27290 120.91439 13283 ft 353 kts 226°
2026-04-25 02:26 14.25579 120.89606 14049 ft 356 kts 226°
2026-04-25 02:26 14.23850 120.87757 14630 ft 361 kts 226°
2026-04-25 02:26 14.22099 120.85883 14892 ft 365 kts 226°
2026-04-25 02:27 14.20337 120.83997 14985 ft 364 kts 226°
2026-04-25 02:27 14.18581 120.82118 14996 ft 364 kts 226°
2026-04-25 02:27 14.16823 120.80237 14991 ft 363 kts 226°
2026-04-25 02:27 14.14937 120.78512 14990 ft 364 kts 216°
2026-04-25 02:28 14.12768 120.77171 14990 ft 365 kts 206°
2026-04-25 02:28 14.10399 120.76233 14991 ft 366 kts 199°
2026-04-25 02:28 14.07988 120.75385 14989 ft 366 kts 199°
2026-04-25 02:28 14.05646 120.74550 14988 ft 366 kts 199°
2026-04-25 02:29 14.03234 120.73686 14986 ft 366 kts 199°
2026-04-25 02:29 14.00832 120.72825 14985 ft 366 kts 200°
2026-04-25 02:29 13.98423 120.71961 14984 ft 366 kts 199°
2026-04-25 02:29 13.96020 120.71102 14984 ft 366 kts 199°
2026-04-25 02:30 13.93616 120.70243 14980 ft 366 kts 199°
2026-04-25 02:30 13.91210 120.69383 15015 ft 368 kts 199°
2026-04-25 02:30 13.88773 120.68511 15478 ft 372 kts 200°
2026-04-25 02:30 13.86328 120.67637 16201 ft 373 kts 200°
2026-04-25 02:31 13.83858 120.66753 16788 ft 378 kts 200°
2026-04-25 02:31 13.81358 120.65859 17362 ft 383 kts 200°
2026-04-25 02:31 13.78823 120.64954 17949 ft 388 kts 200°
2026-04-25 02:31 13.76264 120.64039 18504 ft 391 kts 200°
2026-04-25 02:32 13.73687 120.63118 19051 ft 393 kts 200°
2026-04-25 02:32 13.71103 120.62196 19622 ft 394 kts 200°
2026-04-25 02:32 13.68504 120.61268 20171 ft 396 kts 200°
2026-04-25 02:32 13.65900 120.60339 20719 ft 398 kts 200°
2026-04-25 02:33 13.63275 120.59402 21255 ft 400 kts 200°
2026-04-25 02:33 13.60637 120.58457 21797 ft 402 kts 201°
2026-04-25 02:33 13.58064 120.57316 22289 ft 405 kts 206°
2026-04-25 02:33 13.55511 120.56077 22781 ft 408 kts 206°
2026-04-25 02:34 13.52934 120.54831 23289 ft 411 kts 206°
2026-04-25 02:34 13.50336 120.53579 23735 ft 414 kts 206°
2026-04-25 02:34 13.47725 120.52321 24153 ft 417 kts 206°
2026-04-25 02:34 13.45089 120.51052 24552 ft 420 kts 206°
2026-04-25 02:35 13.42430 120.49772 24970 ft 423 kts 206°
2026-04-25 02:35 13.39761 120.48489 25398 ft 425 kts 206°
2026-04-25 02:35 13.37073 120.47197 25797 ft 428 kts 206°
2026-04-25 02:35 13.34371 120.45898 26203 ft 430 kts 206°
2026-04-25 02:36 13.31649 120.44590 26579 ft 433 kts 206°
2026-04-25 02:36 13.28919 120.43278 26959 ft 435 kts 206°
2026-04-25 02:36 13.26170 120.41957 27318 ft 438 kts 206°
2026-04-25 02:36 13.23399 120.40627 27674 ft 440 kts 207°
2026-04-25 02:37 13.20625 120.39295 28022 ft 443 kts 207°
2026-04-25 02:37 13.17837 120.37956 28372 ft 445 kts 207°
2026-04-25 02:37 13.15014 120.36601 28699 ft 447 kts 207°
2026-04-25 02:37 13.12191 120.35247 29038 ft 449 kts 207°
2026-04-25 02:38 13.09392 120.33904 29357 ft 452 kts 207°
2026-04-25 02:38 13.06497 120.32516 29690 ft 454 kts 207°
2026-04-25 02:38 13.03671 120.31162 30056 ft 455 kts 207°
2026-04-25 02:38 13.00803 120.29788 30394 ft 455 kts 207°
2026-04-25 02:39 12.97936 120.28413 30735 ft 456 kts 207°
2026-04-25 02:39 12.95056 120.27034 31093 ft 457 kts 207°
2026-04-25 02:39 12.92178 120.25656 31440 ft 457 kts 207°
2026-04-25 02:39 12.89297 120.24276 31793 ft 456 kts 206°
2026-04-25 02:40 12.87349 120.23344 32039 ft 455 kts 206°
2026-04-25 02:40 12.83729 120.21611 32497 ft 453 kts 206°
2026-04-25 02:40 12.80880 120.20248 32862 ft 451 kts 206°
2026-04-25 02:40 12.78042 120.18891 33239 ft 449 kts 206°
2026-04-25 02:41 12.75219 120.17540 33620 ft 447 kts 206°
2026-04-25 02:41 12.72403 120.16193 34003 ft 445 kts 206°
2026-04-25 02:41 12.69598 120.14852 34333 ft 444 kts 206°
2026-04-25 02:41 12.66820 120.13523 34672 ft 442 kts 206°
2026-04-25 02:42 12.64044 120.12197 35015 ft 440 kts 206°
2026-04-25 02:42 12.61279 120.10876 35355 ft 437 kts 206°
2026-04-25 02:42 12.58526 120.09561 35715 ft 435 kts 206°
2026-04-25 02:42 12.55788 120.08253 35918 ft 437 kts 206°
2026-04-25 02:43 12.53020 120.06931 35965 ft 442 kts 206°
2026-04-25 02:43 12.47419 120.04258 35969 ft 443 kts 206°
2026-04-25 02:44 12.41835 120.01596 35965 ft 443 kts 206°
2026-04-25 02:44 12.36254 119.98935 35968 ft 443 kts 206°
2026-04-25 02:45 12.30773 119.96324 35965 ft 442 kts 206°
2026-04-25 02:45 12.26134 119.94115 35960 ft 442 kts 206°
2026-04-25 02:46 12.20696 119.91526 35961 ft 442 kts 206°
2026-04-25 02:46 12.15120 119.88873 35961 ft 442 kts 206°
2026-04-25 02:46 12.12353 119.87557 35963 ft 431 kts 205°
2026-04-25 02:47 12.09689 119.86291 35964 ft 414 kts 205°
2026-04-25 02:47 12.07122 119.85071 35963 ft 398 kts 206°
2026-04-25 02:47 12.04665 119.83903 35961 ft 382 kts 206°
2026-04-25 02:48 11.99875 119.81625 35967 ft 384 kts 206°
2026-04-25 02:48 11.94938 119.79278 35814 ft 402 kts 205°
2026-04-25 02:48 11.92352 119.78050 35582 ft 416 kts 205°
2026-04-25 02:49 11.89694 119.76787 35351 ft 426 kts 205°
2026-04-25 02:49 11.86998 119.75508 34997 ft 427 kts 205°
2026-04-25 02:49 11.84307 119.74232 34543 ft 424 kts 205°
2026-04-25 02:49 11.81640 119.72967 34092 ft 421 kts 205°
2026-04-25 02:50 11.78998 119.71715 33596 ft 417 kts 205°
2026-04-25 02:50 11.76383 119.70475 33092 ft 413 kts 206°
2026-04-25 02:50 11.73789 119.69245 32596 ft 409 kts 206°
2026-04-25 02:50 11.71217 119.68026 32107 ft 406 kts 206°
2026-04-25 02:51 11.68656 119.66815 31630 ft 405 kts 206°
2026-04-25 02:51 11.66092 119.65621 31158 ft 405 kts 206°
2026-04-25 02:51 11.63531 119.64436 30697 ft 403 kts 206°
2026-04-25 02:51 11.61011 119.63270 30244 ft 401 kts 206°
2026-04-25 02:52 11.58518 119.62117 29764 ft 400 kts 206°
2026-04-25 02:52 11.56000 119.60949 29271 ft 396 kts 206°
2026-04-25 02:52 11.53505 119.59791 28892 ft 392 kts 206°
2026-04-25 02:52 11.51062 119.58658 28509 ft 390 kts 206°
2026-04-25 02:53 11.48607 119.57519 28139 ft 389 kts 206°
2026-04-25 02:53 11.46146 119.56377 27761 ft 388 kts 206°
2026-04-25 02:53 11.43701 119.55243 27393 ft 385 kts 206°
2026-04-25 02:53 11.41271 119.54118 27028 ft 382 kts 206°
2026-04-25 02:54 11.38865 119.53003 26670 ft 379 kts 206°
2026-04-25 02:54 11.36473 119.51893 26306 ft 377 kts 205°
2026-04-25 02:54 11.34088 119.50787 25962 ft 376 kts 205°
2026-04-25 02:54 11.31708 119.49684 25614 ft 375 kts 205°
2026-04-25 02:55 11.29342 119.48588 25272 ft 373 kts 205°
2026-04-25 02:55 11.26988 119.47497 24931 ft 371 kts 205°
2026-04-25 02:55 11.24647 119.46413 24597 ft 369 kts 205°
2026-04-25 02:55 11.22309 119.45330 24267 ft 368 kts 205°
2026-04-25 02:56 11.19983 119.44253 23937 ft 367 kts 204°
2026-04-25 02:56 11.17667 119.43181 23615 ft 365 kts 204°
2026-04-25 02:56 11.15358 119.42112 23242 ft 363 kts 204°
2026-04-25 02:56 11.13060 119.41049 22855 ft 362 kts 204°
2026-04-25 02:57 11.10772 119.39991 22468 ft 361 kts 204°
2026-04-25 02:57 11.08485 119.38934 22098 ft 360 kts 204°
2026-04-25 02:57 11.06208 119.37881 21729 ft 359 kts 204°
2026-04-25 02:57 11.03941 119.36833 21364 ft 358 kts 204°
2026-04-25 02:58 11.01676 119.35786 21002 ft 357 kts 204°
2026-04-25 02:58 10.99423 119.34745 20647 ft 356 kts 204°
2026-04-25 02:58 10.97167 119.33703 20298 ft 355 kts 205°
2026-04-25 02:58 10.94923 119.32666 19941 ft 353 kts 205°
2026-04-25 02:59 10.92697 119.31638 19595 ft 352 kts 205°
2026-04-25 02:59 10.90461 119.30606 19256 ft 353 kts 205°
2026-04-25 02:59 10.88227 119.29575 18916 ft 352 kts 205°
2026-04-25 02:59 10.85996 119.28545 18581 ft 351 kts 205°
2026-04-25 03:00 10.83775 119.27520 18252 ft 350 kts 205°
2026-04-25 03:00 10.81566 119.26502 17875 ft 347 kts 205°
2026-04-25 03:00 10.79372 119.25489 17490 ft 345 kts 205°
2026-04-25 03:00 10.77196 119.24485 17116 ft 342 kts 205°
2026-04-25 03:01 10.75031 119.23486 16749 ft 340 kts 204°
2026-04-25 03:01 10.72889 119.22498 16383 ft 337 kts 204°
2026-04-25 03:01 10.70758 119.21515 16026 ft 334 kts 204°
2026-04-25 03:01 10.68654 119.20545 15675 ft 331 kts 204°
2026-04-25 03:02 10.66570 119.19584 15322 ft 327 kts 204°
2026-04-25 03:02 10.64506 119.18633 14972 ft 324 kts 204°
2026-04-25 03:02 10.62465 119.17692 14626 ft 321 kts 204°
2026-04-25 03:02 10.60431 119.16755 14288 ft 320 kts 204°
2026-04-25 03:03 10.58406 119.15822 13941 ft 318 kts 204°
2026-04-25 03:03 10.56422 119.14908 13594 ft 316 kts 204°
2026-04-25 03:03 10.54433 119.13991 13222 ft 313 kts 204°
2026-04-25 03:03 10.52452 119.13079 12851 ft 313 kts 203°
2026-04-25 03:04 10.50474 119.12167 12480 ft 312 kts 203°
2026-04-25 03:04 10.48499 119.11258 12111 ft 310 kts 203°
2026-04-25 03:04 10.46543 119.10358 11754 ft 308 kts 203°
2026-04-25 03:05 10.42659 119.08568 11098 ft 305 kts 202°
2026-04-25 03:05 10.40733 119.07680 11000 ft 304 kts 202°
2026-04-25 03:05 10.38799 119.06792 10979 ft 306 kts 202°
2026-04-25 03:05 10.36861 119.05900 10982 ft 306 kts 202°
2026-04-25 03:06 10.34935 119.04971 10980 ft 307 kts 207°
2026-04-25 03:06 10.33152 119.03764 10871 ft 310 kts 215°
2026-04-25 03:06 10.31421 119.02451 10639 ft 308 kts 215°
2026-04-25 03:06 10.29720 119.01165 10408 ft 303 kts 214°
2026-04-25 03:07 10.28020 118.99884 10181 ft 305 kts 214°
2026-04-25 03:07 10.26315 118.98603 9956 ft 305 kts 214°
2026-04-25 03:07 10.24615 118.97327 9722 ft 302 kts 214°
2026-04-25 03:07 10.22926 118.96060 9467 ft 303 kts 214°
2026-04-25 03:08 10.21302 118.94844 9124 ft 302 kts 215°
2026-04-25 03:08 10.19637 118.93597 8778 ft 300 kts 214°
2026-04-25 03:08 10.17941 118.92327 8410 ft 299 kts 214°
2026-04-25 03:08 10.16272 118.91078 8045 ft 296 kts 214°
2026-04-25 03:09 10.14553 118.89944 7709 ft 292 kts 200°
2026-04-25 03:09 10.13786 118.89682 7579 ft 285 kts 189°
2026-04-25 03:09 10.11856 118.89687 7339 ft 281 kts 163°
2026-04-25 03:09 10.09961 118.90244 7088 ft 284 kts 160°
2026-04-25 03:10 10.08086 118.90816 6814 ft 278 kts 160°
2026-04-25 03:10 10.06227 118.91379 6564 ft 282 kts 160°
2026-04-25 03:10 10.04351 118.91944 6317 ft 279 kts 160°
2026-04-25 03:10 10.02509 118.92496 6021 ft 274 kts 160°
2026-04-25 03:11 10.00686 118.93044 5774 ft 278 kts 161°
2026-04-25 03:11 9.98840 118.93590 5506 ft 275 kts 161°
2026-04-25 03:11 9.97022 118.94126 5235 ft 270 kts 161°
2026-04-25 03:11 9.95205 118.94666 4975 ft 274 kts 160°
2026-04-25 03:12 9.93382 118.95209 4708 ft 271 kts 160°
2026-04-25 03:12 9.91578 118.95745 4439 ft 271 kts 160°
2026-04-25 03:12 9.89774 118.96282 4176 ft 269 kts 160°
2026-04-25 03:12 9.87990 118.96814 3912 ft 266 kts 160°
2026-04-25 03:13 9.86213 118.97344 3654 ft 267 kts 160°
2026-04-25 03:13 9.84429 118.97875 3391 ft 266 kts 161°
2026-04-25 03:13 9.82651 118.98397 3126 ft 266 kts 163°
2026-04-25 03:13 9.80824 118.98668 2856 ft 266 kts 175°
2026-04-25 03:14 9.78968 118.98614 2600 ft 267 kts 180°
2026-04-25 03:14 9.77133 118.98517 2501 ft 264 kts 179°
2026-04-25 03:14 9.75373 118.98145 2496 ft 256 kts 204°
2026-04-25 03:14 9.74046 118.97031 2500 ft 245 kts 234°
2026-04-25 03:15 9.73418 118.95485 2500 ft 232 kts 262°
2026-04-25 03:15 9.73425 118.93901 2498 ft 220 kts 274°
2026-04-25 03:15 9.73510 118.92310 2498 ft 230 kts 274°
2026-04-25 03:15 9.73586 118.90702 2442 ft 227 kts 273°
2026-04-25 03:16 9.73653 118.89141 2253 ft 224 kts 272°
2026-04-25 03:16 9.73719 118.87580 2054 ft 219 kts 273°
2026-04-25 03:16 9.73763 118.86045 1860 ft 215 kts 272°
2026-04-25 03:16 9.73806 118.84547 1688 ft 208 kts 272°
2026-04-25 03:17 9.73830 118.83128 1529 ft 196 kts 272°
2026-04-25 03:17 9.73890 118.81799 1347 ft 193 kts 274°
2026-04-25 03:17 9.73941 118.80404 1212 ft 200 kts 273°
2026-04-25 03:17 9.74001 118.78999 1196 ft 202 kts 275°
2026-04-25 03:18 9.74472 118.77669 1192 ft 201 kts 311°
2026-04-25 03:18 9.75411 118.76654 1191 ft 193 kts 318°
2026-04-25 03:18 9.76360 118.75708 1196 ft 192 kts 318°
2026-04-25 03:18 9.77274 118.74682 1182 ft 201 kts 302°
2026-04-25 03:19 9.77611 118.73322 1208 ft 200 kts 274°
2026-04-25 03:19 9.77700 118.71965 1196 ft 185 kts 273°
2026-04-25 03:19 9.77619 118.70677 1176 ft 186 kts 249°
2026-04-25 03:19 9.76810 118.69707 1198 ft 182 kts 206°
2026-04-25 03:20 9.75607 118.69520 1204 ft 176 kts 164°
2026-04-25 03:20 9.74638 118.70175 1192 ft 168 kts 121°
2026-04-25 03:20 9.74381 118.71253 1075 ft 151 kts 88°
2026-04-25 03:20 9.74392 118.72294 784 ft 142 kts 90°
2026-04-25 03:21 9.74338 118.73273 519 ft 141 kts 93°
2026-04-25 03:21 9.74280 118.74247 236 ft 134 kts 90°
2026-04-25 03:21 9.74246 118.75149 72 ft 120 kts 91°
2026-04-25 03:21 9.74216 118.75875 59 ft 82 kts 92°
2026-04-25 03:22 9.74197 118.76314 47 ft 45 kts 92°
2026-04-25 03:22 9.74183 118.76623 40 ft 43 kts 92°
2026-04-25 03:22 9.74182 118.76867 34 ft 27 kts 76°
2026-04-25 03:22 9.74217 118.77015 31 ft 1 kts 105°
2026-04-25 03:23 9.74184 118.77034 30 ft 11 kts 189°
2026-04-25 03:23 9.74167 118.76954 32 ft 16 kts 272°
2026-04-25 03:23 9.74174 118.76806 35 ft 26 kts 272°
2026-04-25 03:23 9.74183 118.76595 41 ft 34 kts 272°
2026-04-25 03:24 9.74194 118.76334 47 ft 40 kts 273°
2026-04-25 03:24 9.74207 118.76030 54 ft 46 kts 273°
2026-04-25 03:24 9.74221 118.75708 63 ft 46 kts 273°
2026-04-25 03:24 9.74235 118.75400 72 ft 28 kts 272°
2026-04-25 03:25 9.74269 118.75257 73 ft 19 kts 335°
2026-04-25 03:25 9.74381 118.75251 71 ft 14 kts 342°
2026-04-25 03:25 9.74412 118.75198 76 ft 9 kts 279°
2026-04-25 03:25 9.74413 118.75164 72 ft 0 kts 269°
2026-04-25 03:26 9.74414 118.75151 68 ft 5 kts 282°
2026-04-25 03:26 9.74433 118.75149 67 ft 2 kts 16°
2026-04-25 03:26 9.74476 118.75153 76 ft 10 kts
2026-04-25 03:26 9.74496 118.75154 73 ft 2 kts
2026-04-25 03:27 9.74507 118.75155 68 ft 0 kts